Regional Weather Roundup
Issued by NWS

Home | Current Version | Previous Version | Graphics & Text | Print | Product List | Glossary On
Versions: 1 2 3 4 5 6 7 8 9 10 11 12 13 14 15 16 17 18 19 20 21 22 23 24 25 26 27
000
ASUS45 KBOU 191307
RWRCO

WEATHER ROUNDUP FOR COLORADO
NATIONAL WEATHER SERVICE DENVER/BOULDER CO
700 AM MDT TUE SEP 19 2017

NOTE: "FAIR" INDICATES FEW OR NO CLOUDS BELOW 12000 FEET WITH NO
SIGNIFICANT WEATHER AND/OR OBSTRUCTIONS TO VISIBILITY.

COZ001>005-013-030-031-191400-
...NORTHWEST COLORADO...

CITY           SKY/WX    TMP DP  RH WIND       PRES   REMARKS
CRAIG          FAIR      61  20  20 SW15G22   29.82S
HAYDEN         FAIR      53  23  31 S6        29.86F
MEEKER         FAIR      59  22  24 S9G21     29.86S
RABBIT EARS PA FAIR      43  19  39 SW13G22   30.06F
STEAMBOAT SPGS FAIR      42  29  60 CALM      29.87S
WALDEN         FAIR      48  19  32 S12       29.92S
$$

COZ006>008-011-191400-
...WEST CENTRAL VALLEYS...

CITY           SKY/WX    TMP DP  RH WIND       PRES   REMARKS
GRAND JUNCTION FAIR      62  24  23 SE15      29.84R
MONTROSE       FAIR      54  29  38 SE3       29.96F
EAGLE          FAIR      62  20  19 SW17G24   29.92R
RIFLE          FAIR      61  22  22 W3        29.86R
DELTA          FAIR      54  27  34 MISG      29.93R
NUCLA          FAIR      59  19  21 S8        30.01S
$$

COZ017>023-064>068-191400-
...SOUTHWEST COLORADO...

CITY           SKY/WX    TMP DP  RH WIND       PRES   REMARKS
DURANGO        FAIR      35  29  78 N5        30.11R WCI  31
CORTEZ         FAIR      40  28  62 E6        30.05R
PAGOSA SPRINGS FAIR      38  26  63 CALM      30.16S
TELLURIDE      FAIR      51  11  20 E3        30.14S
WOLF CREEK PAS FAIR      32  14  47 S28G38    30.31S WCI  18
$$

COZ009-010-012-014-032>034-037-058>063-191400-
...CENTRAL COLORADO...

CITY           SKY/WX    TMP DP  RH WIND       PRES   REMARKS
ASPEN          FAIR      52  20  28 VRB3      29.98R
BUENA VISTA    FAIR      37  24  57 S3        30.01F
COPPER MTN     FAIR      45  -6  12 SW18G41   30.17F
BERTHOUD PASS  FAIR      36  30  80 W41G60    30.14S
COTTONWOOD PAS FAIR      50  12  22 SE5       30.09F
GUNNISON       FAIR      29  26  89 CALM      30.10S
KREMMLING      FAIR      63  16  16 W20G36    29.92F
LEADVILLE      FAIR      49   3  15 SE14G22   30.06F
MONARCH PASS   FAIR      36  14  41 SW36G43   30.31F
SALIDA         FAIR      57  18  21 SW12G21   30.05F
SUNLIGHT       FAIR      37  16  41 SW23G36   30.12S
WILKERSON PASS FAIR      39  14  35 SW14G25   30.15R
$$

COZ069>075-191400-
...SAN LUIS VALLEY/SANGRE DE CRISTO MOUNTAINS...

CITY           SKY/WX    TMP DP  RH WIND       PRES   REMARKS
ALAMOSA        FAIR      43  23  45 S7        30.07S
DEL NORTE      FAIR      52  19  27 W16G23    30.09R
LA VETA PASS   FAIR      45  14  29 S31G54    30.19F
SAGUACHE       FAIR      32  28  86 NW8       30.09R WCI  25
$$

COZ035-036-038>040-191400-
...NORTHERN COLORADO FRONT RANGE...

CITY           SKY/WX    TMP DP  RH WIND       PRES   REMARKS
DENVER INTL AP MOCLDY    63  21  20 S14       29.74F
DMNS CITY PARK   N/A     62  24  23 SE9       29.74S
AURORA         MOCLDY    62  22  21 S12       29.77S
FRONT RANGE AP MOCLDY    66  21  18 S16       29.76S
ERIE MUNI ARPT FAIR      55  28  35 CALM      29.78R
BOULDER MUN AP FAIR      52  34  50 W5        29.74R
CENTENNIAL     MOCLDY    63  21  20 S17       29.78F
BROOMFIELD     NOT AVBL
FORT COLLINS   NOT AVBL
LONGMONT       FAIR      49  39  70 CALM      29.74S
$$

COZ041-046-047-076>085-087-088-191400-
...PIKES PEAK/PALMER DIVIDE AND SOUTHERN FOOTHILLS...

CITY           SKY/WX    TMP DP  RH WIND       PRES   REMARKS
COLO. SPRINGS  MOCLDY    63  22  20 VRB7      29.86S
A. F. ACADEMY  FAIR      48  24  37 NE8       29.85F
SCHRIEVER AFB  FAIR      53  22  29 SE5       29.86S
CHEYENNE MTN   NOT AVBL
ELLICOTT       NOT AVBL
FALCON         FAIR      57  18  21 SW7G18    29.89F
FORT CARSON    FAIR      59  22  24 SW8       29.83S
LIMON            N/A    N/A N/A N/A MISG      29.79S
MONUMENT HILL  FAIR      52  21  30 W6        29.91S
CANON CITY     CLEAR     55  28  35 W8        29.81S
WALSENBURG     NOT AVBL
TRINIDAD       FAIR      65  22  19 SW16      29.87F
$$

COZ042>045-048>051-090-091-191400-
...NORTHEAST COLORADO...

CITY           SKY/WX    TMP DP  RH WIND       PRES   REMARKS
GREELEY ARPT   FAIR      46  41  82 W5        29.72S
AKRON          FAIR      61  30  31 SW13      29.71S
BURLINGTON     FAIR      46  44  93 W9        29.74R
WRAY           FAIR      54  46  76 S5        29.69S
YUMA           FAIR      48  30  49 NW5       29.69S
STERLING       FAIR      48  46  93 W8        29.67S
HOLYOKE        FAIR      54  50  87 S9        29.68F
FORT MORGAN    FAIR      57  36  45 W5        29.71S
$$

COZ086-089-092>099-191400-
...SOUTHEAST COLORADO...

CITY           SKY/WX    TMP DP  RH WIND       PRES   REMARKS
PUEBLO         FAIR      49  31  49 N3        29.78S
LA JUNTA       FAIR      59  30  33 SW15      29.77R
LAMAR          FAIR      43  38  82 CALM      29.73F
SPRINGFIELD    NOT AVBL
$$




USA.gov is the U.S. government's official web portal to all federal, state and local government web resources and services.